Location: Hoyos del Collado
(40.3594°N, 5.2003°W)
Time: 12:43:34
(UTC+00:00)

ISS - Pass Details

Date: 26 June 2024
Orbit: 410 x 424 km, 51.6° (Epoch: 13 July)

Event Time Altitude Azimuth Distance (km) Brightness Sun altitude
Exits shadow 02:33:15 54° 129° (SE) 506 -3.5 -19.5°
Drops below altitude 10° 02:36:24 10° 61° (ENE) 1,490 -0.1 -19.2°
Sets 02:38:32 0° 57° (ENE) 2,359 1.2 -19.0°
